Location: Unspecified
(51.3127°N, 0.0000°E)
Time: 05:19:49
(UTC+00:00)

SL-14 DEB - Visible Passes

Search period start: 04 April 2026 00:00
Search period end: 14 April 2026 00:00
Orbit: 723 x 788 km, 82.1° (Epoch: 28 March)

Date Brightness Start Highest point End Pass type
(mag) Time Alt. Az. Time Alt. Az. Time Alt. Az.
4 Apr ? 19:41:36 10° N 19:46:49 71° ENE 19:52:04 10° SSE visible
4 Apr ? 21:23:25 10° NW 21:27:03 19° W 21:30:42 10° SW visible
5 Apr ? 20:42:15 10° NNW 20:46:55 34° W 20:51:38 10° SSW visible
6 Apr ? 20:01:28 10° NNW 20:06:38 63° W 20:11:50 10° S visible
7 Apr ? 19:20:56 10° N 19:26:11 73° ENE 19:31:27 10° SSE visible
7 Apr ? 21:02:48 10° NW 21:06:22 19° W 21:09:57 10° SW visible
8 Apr ? 20:21:33 10° NNW 20:26:13 33° W 20:30:54 10° SSW visible
9 Apr ? 19:40:43 10° NNW 19:45:54 61° W 19:51:06 10° S visible
10 Apr ? 20:42:03 10° NW 20:45:33 18° W 20:49:04 10° SW visible
11 Apr ? 20:00:44 10° NNW 20:05:22 32° W 20:10:01 10° SSW visible
12 Apr ? 19:19:51 10° NNW 19:25:01 59° W 19:30:12 10° S visible
13 Apr ? 20:21:11 10° NW 20:24:37 18° W 20:28:03 10° WSW visible
